Location: Saint-Palais-sur-Mer
(45.6429°N, 1.0859°W)
Time: 08:29:29
(UTC+01:00)

Vanguard 3 - All Passes

Search period start: 15 February 2026 00:00
Search period end: 25 February 2026 00:00
Orbit: 507 x 3205 km, 33.3° (Epoch: 13 February)

Date Brightness Start Highest point End Pass type
(mag) Time Alt. Az. Time Alt. Az. Time Alt. Az.
15 Feb - 16:34:56 10° S 16:39:10 14° SSE 16:42:35 10° SE daylight
15 Feb - 18:45:00 10° SW 18:50:04 21° S 18:53:46 10° SE daylight
15 Feb - 20:57:11 10° SW 21:00:11 16° SSW 21:02:42 10° SSE visible
16 Feb - 17:22:29 10° SSW 17:28:39 20° S 17:33:04 10° SE daylight
16 Feb - 19:34:26 10° SW 19:39:15 22° S 19:42:47 10° SE visible
16 Feb - 21:48:03 10° SW 21:49:03 11° SSW 21:49:59 10° S visible
17 Feb - 16:00:23 10° SSW 16:06:52 17° SSE 16:11:43 10° SE daylight
17 Feb - 18:11:29 10° SW 18:18:02 25° S 18:22:30 10° ESE daylight
17 Feb - 20:24:20 10° WSW 20:28:16 19° SSW 20:31:20 10° SSE visible
18 Feb - 14:39:44 10° S 14:44:42 13° SSE 14:48:51 10° SE daylight
18 Feb - 16:48:28 10° SW 16:56:26 24° S 17:01:49 10° ESE daylight
18 Feb - 19:01:09 10° WSW 19:07:16 26° S 19:11:26 10° SE visible
18 Feb - 21:15:02 10° SW 21:17:05 12° SSW 21:18:54 10° S visible
19 Feb - 15:25:51 10° SSW 15:34:25 21° SSE 15:40:30 10° ESE daylight
19 Feb - 17:37:44 10° SW 17:45:53 29° S 17:51:08 10° ESE daylight
19 Feb - 19:51:14 10° WSW 19:56:18 22° SSW 19:59:58 10° SE visible
20 Feb - 14:04:30 10° S 14:12:01 16° SSE 14:17:57 10° ESE daylight
20 Feb - 16:14:16 10° SW 16:24:03 28° S 16:30:25 10° ESE daylight
20 Feb - 18:27:37 10° WSW 18:35:10 30° S 18:40:03 10° SE daylight
20 Feb - 20:41:55 10° WSW 20:45:05 15° SSW 20:47:41 10° S visible
21 Feb - 12:49:03 10° SSE 12:49:22 10° SE 12:49:40 10° SE daylight
21 Feb - 14:51:16 10° SSW 15:01:47 24° SSE 15:09:03 10° ESE daylight
21 Feb - 17:03:45 10° SW 17:13:35 33° S 17:19:41 10° ESE daylight
21 Feb - 19:17:52 10° WSW 19:24:15 25° SSW 19:28:34 10° SE visible
22 Feb - 13:29:31 10° S 13:39:08 19° SSE 13:46:34 10° ESE daylight
22 Feb - 15:39:56 10° SW 15:51:30 32° S 15:58:53 10° ESE daylight
22 Feb - 17:53:50 10° WSW 18:02:58 34° S 18:08:36 10° SE daylight
22 Feb - 20:08:36 10° WSW 20:13:03 18° SSW 20:16:25 10° SSE visible
23 Feb - 12:10:59 10° SSE 12:16:18 12° SE 12:21:05 10° SE daylight
23 Feb - 14:16:40 10° SSW 14:28:56 28° SSE 14:37:25 10° ESE daylight
23 Feb - 16:29:35 10° WSW 16:41:07 37° S 16:48:09 10° ESE daylight
23 Feb - 18:44:15 10° WSW 18:52:05 29° SSW 18:57:08 10° SE daylight
24 Feb - 12:54:40 10° SSW 13:06:03 21° SSE 13:14:51 10° ESE daylight
24 Feb - 15:05:29 10° SW 15:18:44 36° SSE 15:27:12 10° ESE daylight
24 Feb - 17:19:49 10° WSW 17:30:35 38° S 17:37:05 10° ESE daylight
24 Feb - 19:35:04 10° WSW 19:40:54 21° SSW 19:45:04 10° SSE visible
